Year,Month,Day,Hour,Minute,Value (Times are PST for temperature in C)
2014,08,24,00,00,18.00
2014,08,24,00,01,18.10
2014,08,24,00,02,18.10
2014,08,24,00,03,18.20
2014,08,24,00,04,18.30
2014,08,24,00,05,18.40
2014,08,24,00,06,18.50
2014,08,24,00,07,18.50
2014,08,24,00,08,18.60
2014,08,24,00,09,18.70
2014,08,24,00,10,18.80
2014,08,24,00,11,18.80
2014,08,24,00,12,18.90
2014,08,24,00,13,19.00
2014,08,24,00,14,19.00
2014,08,24,00,15,19.00
2014,08,24,00,16,19.10
2014,08,24,00,17,19.10
2014,08,24,00,18,19.10
2014,08,24,00,19,19.10
2014,08,24,00,20,19.00
2014,08,24,00,21,19.00
2014,08,24,00,22,18.90
2014,08,24,00,23,18.80
2014,08,24,00,24,18.70
2014,08,24,00,25,18.60
2014,08,24,00,26,18.50
2014,08,24,00,27,18.40
2014,08,24,00,28,18.30
2014,08,24,00,29,18.20
2014,08,24,00,30,18.10
2014,08,24,00,31,18.00
2014,08,24,00,32,17.90
2014,08,24,00,33,17.80
2014,08,24,00,34,17.70
2014,08,24,00,35,17.70
2014,08,24,00,36,17.60
2014,08,24,00,37,17.50
2014,08,24,00,38,17.40
2014,08,24,00,39,17.40
2014,08,24,00,40,17.30
2014,08,24,00,41,17.30
2014,08,24,00,42,17.20
2014,08,24,00,43,17.20
2014,08,24,00,44,17.20
2014,08,24,00,45,17.20
2014,08,24,00,46,17.20
2014,08,24,00,47,17.20
2014,08,24,00,48,17.10
2014,08,24,00,49,17.10
2014,08,24,00,50,17.10
2014,08,24,00,51,17.10
2014,08,24,00,52,17.10
2014,08,24,00,53,17.10
2014,08,24,00,54,17.20
2014,08,24,00,55,17.20
2014,08,24,00,56,17.20
2014,08,24,00,57,17.20
2014,08,24,00,58,17.20
2014,08,24,00,59,17.20
2014,08,24,01,00,17.20
2014,08,24,01,01,17.10
2014,08,24,01,02,17.10
2014,08,24,01,03,17.10
2014,08,24,01,04,17.10
2014,08,24,01,05,17.10
2014,08,24,01,06,17.20
2014,08,24,01,07,17.20
2014,08,24,01,08,17.20
2014,08,24,01,09,17.20
2014,08,24,01,10,17.20
2014,08,24,01,11,17.20
2014,08,24,01,12,17.30
2014,08,24,01,13,17.30
2014,08,24,01,14,17.40
2014,08,24,01,15,17.40
2014,08,24,01,16,17.50
2014,08,24,01,17,17.50
2014,08,24,01,18,17.60
2014,08,24,01,19,17.70
2014,08,24,01,20,17.70
2014,08,24,01,21,17.70
2014,08,24,01,22,17.80
2014,08,24,01,23,17.80
2014,08,24,01,24,17.80
2014,08,24,01,25,17.80
2014,08,24,01,26,17.80
2014,08,24,01,27,17.80
2014,08,24,01,28,17.80
2014,08,24,01,29,17.80
2014,08,24,01,30,17.80
2014,08,24,01,31,17.80
2014,08,24,01,32,17.80
2014,08,24,01,33,17.80
2014,08,24,01,34,17.80
2014,08,24,01,35,17.80
2014,08,24,01,36,17.80
2014,08,24,01,37,17.80
2014,08,24,01,38,17.80
2014,08,24,01,39,17.80
2014,08,24,01,40,17.80
2014,08,24,01,41,17.80
2014,08,24,01,42,17.80
2014,08,24,01,43,17.80
2014,08,24,01,44,17.80
2014,08,24,01,45,17.80
2014,08,24,01,46,17.70
2014,08,24,01,47,17.70
2014,08,24,01,48,17.70
2014,08,24,01,49,17.70
2014,08,24,01,50,17.60
2014,08,24,01,51,17.60
2014,08,24,01,52,17.60
2014,08,24,01,53,17.60
2014,08,24,01,54,17.60
2014,08,24,01,55,17.50
2014,08,24,01,56,17.50
2014,08,24,01,57,17.50
2014,08,24,01,58,17.40
2014,08,24,01,59,17.40
2014,08,24,02,00,17.40
2014,08,24,02,01,17.30
2014,08,24,02,02,17.30
2014,08,24,02,03,17.20
2014,08,24,02,04,17.20
2014,08,24,02,05,17.10
2014,08,24,02,06,17.10
2014,08,24,02,07,17.00
2014,08,24,02,08,17.00
2014,08,24,02,09,16.90
2014,08,24,02,10,16.90
2014,08,24,02,11,16.80
2014,08,24,02,12,16.80
2014,08,24,02,13,16.80
2014,08,24,02,14,16.70
2014,08,24,02,15,16.60
2014,08,24,02,16,16.60
2014,08,24,02,17,16.50
2014,08,24,02,18,16.50
2014,08,24,02,19,16.40
2014,08,24,02,20,16.40
2014,08,24,02,21,16.40
2014,08,24,02,22,16.40
2014,08,24,02,23,16.40
2014,08,24,02,24,16.40
2014,08,24,02,25,16.40
2014,08,24,02,26,16.50
2014,08,24,02,27,16.50
2014,08,24,02,28,16.60
2014,08,24,02,29,16.60
2014,08,24,02,30,16.60
2014,08,24,02,31,16.70
2014,08,24,02,32,16.70
2014,08,24,02,33,16.70
2014,08,24,02,34,16.80
2014,08,24,02,35,16.80
2014,08,24,02,36,16.80
2014,08,24,02,37,16.80
2014,08,24,02,38,16.80
2014,08,24,02,39,16.80
2014,08,24,02,40,16.80
2014,08,24,02,41,16.90
2014,08,24,02,42,16.90
2014,08,24,02,43,16.90
2014,08,24,02,44,16.90
2014,08,24,02,45,16.90
2014,08,24,02,46,16.90
2014,08,24,02,47,16.90
2014,08,24,02,48,16.90
2014,08,24,02,49,16.90
2014,08,24,02,50,16.90
2014,08,24,02,51,16.90
2014,08,24,02,52,16.80
2014,08,24,02,53,16.80
2014,08,24,02,54,16.80
2014,08,24,02,55,16.80
2014,08,24,02,56,16.80
2014,08,24,02,57,16.80
2014,08,24,02,58,16.80
2014,08,24,02,59,16.80
2014,08,24,03,00,16.80
2014,08,24,03,01,16.80
2014,08,24,03,02,16.80
2014,08,24,03,03,16.70
2014,08,24,03,04,16.70
2014,08,24,03,05,16.70
2014,08,24,03,06,16.70
2014,08,24,03,07,16.70
2014,08,24,03,08,16.70
2014,08,24,03,09,16.70
2014,08,24,03,10,16.70
2014,08,24,03,11,16.60
2014,08,24,03,12,16.50
2014,08,24,03,13,16.40
2014,08,24,03,14,16.40
2014,08,24,03,15,16.40
2014,08,24,03,16,16.40
2014,08,24,03,17,16.30
2014,08,24,03,18,16.30
2014,08,24,03,19,16.30
2014,08,24,03,20,16.30
2014,08,24,03,21,16.30
2014,08,24,03,22,16.20
2014,08,24,03,23,16.20
2014,08,24,03,24,16.20
2014,08,24,03,25,16.20
2014,08,24,03,26,16.20
2014,08,24,03,27,16.20
2014,08,24,03,28,16.20
2014,08,24,03,29,16.20
2014,08,24,03,30,16.20
2014,08,24,03,31,16.20
2014,08,24,03,32,16.20
2014,08,24,03,33,16.20
2014,08,24,03,34,16.20
2014,08,24,03,35,16.30
2014,08,24,03,36,16.30
2014,08,24,03,37,16.30
2014,08,24,03,38,16.30
2014,08,24,03,39,16.30
2014,08,24,03,40,16.40
2014,08,24,03,41,16.40
2014,08,24,03,42,16.40
2014,08,24,03,43,16.40
2014,08,24,03,44,16.30
2014,08,24,03,45,16.30
2014,08,24,03,46,16.30
2014,08,24,03,47,16.30
2014,08,24,03,48,16.30
2014,08,24,03,49,16.30
2014,08,24,03,50,16.30
2014,08,24,03,51,16.30
2014,08,24,03,52,16.30
2014,08,24,03,53,16.30
2014,08,24,03,54,16.20
2014,08,24,03,55,16.20
2014,08,24,03,56,16.10
2014,08,24,03,57,16.10
2014,08,24,03,58,16.00
2014,08,24,03,59,16.00
2014,08,24,04,00,15.90
2014,08,24,04,01,15.90
2014,08,24,04,02,15.90
2014,08,24,04,03,15.90
2014,08,24,04,04,15.90
2014,08,24,04,05,15.90
2014,08,24,04,06,15.90
2014,08,24,04,07,15.80
2014,08,24,04,08,15.80
2014,08,24,04,09,15.80
2014,08,24,04,10,15.80
2014,08,24,04,11,15.70
2014,08,24,04,12,15.70
2014,08,24,04,13,15.70
2014,08,24,04,14,15.70
2014,08,24,04,15,15.70
2014,08,24,04,16,15.60
2014,08,24,04,17,15.60
2014,08,24,04,18,15.60
2014,08,24,04,19,15.50
2014,08,24,04,20,15.50
2014,08,24,04,21,15.40
2014,08,24,04,22,15.40
2014,08,24,04,23,15.40
2014,08,24,04,24,15.40
2014,08,24,04,25,15.30
2014,08,24,04,26,15.30
2014,08,24,04,27,15.30
2014,08,24,04,28,15.30
2014,08,24,04,29,15.20
2014,08,24,04,30,15.20
2014,08,24,04,31,15.20
2014,08,24,04,32,15.10
2014,08,24,04,33,15.10
2014,08,24,04,34,15.10
2014,08,24,04,35,15.00
2014,08,24,04,36,15.00
2014,08,24,04,37,14.90
2014,08,24,04,38,14.90
2014,08,24,04,39,14.80
2014,08,24,04,40,14.80
2014,08,24,04,41,14.70
2014,08,24,04,42,14.70
2014,08,24,04,43,14.60
2014,08,24,04,44,14.60
2014,08,24,04,45,14.60
2014,08,24,04,46,14.60
2014,08,24,04,47,14.70
2014,08,24,04,48,14.70
2014,08,24,04,49,14.70
2014,08,24,04,50,14.70
2014,08,24,04,51,14.70
2014,08,24,04,52,14.70
2014,08,24,04,53,14.70
2014,08,24,04,54,14.70
2014,08,24,04,55,14.70
2014,08,24,04,56,14.70
2014,08,24,04,57,14.70
2014,08,24,04,58,14.70
2014,08,24,04,59,14.70
2014,08,24,05,00,14.70
2014,08,24,05,01,14.70
2014,08,24,05,02,14.80
2014,08,24,05,03,14.80
2014,08,24,05,04,14.80
2014,08,24,05,05,14.80
2014,08,24,05,06,14.80
2014,08,24,05,07,14.90
2014,08,24,05,08,14.90
2014,08,24,05,09,14.90
2014,08,24,05,10,14.90
2014,08,24,05,11,14.90
2014,08,24,05,12,14.80
2014,08,24,05,13,14.80
2014,08,24,05,14,14.80
2014,08,24,05,15,14.80
2014,08,24,05,16,14.80
2014,08,24,05,17,14.80
2014,08,24,05,18,14.80
2014,08,24,05,19,14.80
2014,08,24,05,20,14.70
2014,08,24,05,21,14.80
2014,08,24,05,22,14.80
2014,08,24,05,23,14.80
2014,08,24,05,24,14.80
2014,08,24,05,25,14.80
2014,08,24,05,26,14.80
2014,08,24,05,27,14.80
2014,08,24,05,28,14.80
2014,08,24,05,29,14.80
2014,08,24,05,30,14.80
2014,08,24,05,31,14.80
2014,08,24,05,32,14.90
2014,08,24,05,33,14.90
2014,08,24,05,34,14.90
2014,08,24,05,35,14.90
2014,08,24,05,36,15.00
2014,08,24,05,37,15.00
2014,08,24,05,38,15.00
2014,08,24,05,39,15.00
2014,08,24,05,40,15.10
2014,08,24,05,41,15.10
2014,08,24,05,42,15.10
2014,08,24,05,43,15.10
2014,08,24,05,44,15.10
2014,08,24,05,45,15.10
2014,08,24,05,46,15.10
2014,08,24,05,47,15.10
2014,08,24,05,48,15.10
2014,08,24,05,49,15.10
2014,08,24,05,50,15.10
2014,08,24,05,51,15.10
2014,08,24,05,52,15.10
2014,08,24,05,53,15.10
2014,08,24,05,54,15.10
2014,08,24,05,55,15.10
2014,08,24,05,56,15.10
2014,08,24,05,57,15.10
2014,08,24,05,58,15.10
2014,08,24,05,59,15.10
2014,08,24,06,00,15.10
2014,08,24,06,01,15.00
2014,08,24,06,02,15.00
2014,08,24,06,03,15.00
2014,08,24,06,04,14.90
2014,08,24,06,05,14.90
2014,08,24,06,06,14.80
2014,08,24,06,07,14.70
2014,08,24,06,08,14.70
2014,08,24,06,09,14.60
2014,08,24,06,10,14.50
2014,08,24,06,11,14.40
2014,08,24,06,12,14.40
2014,08,24,06,13,14.30
2014,08,24,06,14,14.30
2014,08,24,06,15,14.30
2014,08,24,06,16,14.30
2014,08,24,06,17,14.20
2014,08,24,06,18,14.10
2014,08,24,06,19,14.10
2014,08,24,06,20,14.00
2014,08,24,06,21,14.00
2014,08,24,06,22,13.90
2014,08,24,06,23,13.90
2014,08,24,06,24,13.80
2014,08,24,06,25,13.80
2014,08,24,06,26,13.80
2014,08,24,06,27,13.80
2014,08,24,06,28,13.70
2014,08,24,06,29,13.70
2014,08,24,06,30,13.70
2014,08,24,06,31,13.60
2014,08,24,06,32,13.60
2014,08,24,06,33,13.60
2014,08,24,06,34,13.60
2014,08,24,06,35,13.50
2014,08,24,06,36,13.50
2014,08,24,06,37,13.50
2014,08,24,06,38,13.50
2014,08,24,06,39,13.50
2014,08,24,06,40,13.50
2014,08,24,06,41,13.50
2014,08,24,06,42,13.50
2014,08,24,06,43,13.60
2014,08,24,06,44,13.60
2014,08,24,06,45,13.70
2014,08,24,06,46,13.70
2014,08,24,06,47,13.80
2014,08,24,06,48,13.80
2014,08,24,06,49,13.90
2014,08,24,06,50,14.00
2014,08,24,06,51,14.00
2014,08,24,06,52,14.10
2014,08,24,06,53,14.20
2014,08,24,06,54,14.30
2014,08,24,06,55,14.30
2014,08,24,06,56,14.40
2014,08,24,06,57,14.40
2014,08,24,06,58,14.50
2014,08,24,06,59,14.60
2014,08,24,07,00,14.60
2014,08,24,07,01,14.60
2014,08,24,07,02,14.60
2014,08,24,07,03,14.70
2014,08,24,07,04,14.70
2014,08,24,07,05,14.70
2014,08,24,07,06,14.70
2014,08,24,07,07,14.70
2014,08,24,07,08,14.70
2014,08,24,07,09,14.70
2014,08,24,07,10,14.80
2014,08,24,07,11,14.80
2014,08,24,07,12,14.80
2014,08,24,07,13,14.80
2014,08,24,07,14,14.80
2014,08,24,07,15,14.90
2014,08,24,07,16,14.90
2014,08,24,07,17,14.90
2014,08,24,07,18,15.00
2014,08,24,07,19,15.00
2014,08,24,07,20,15.00
2014,08,24,07,21,15.10
2014,08,24,07,22,15.10
2014,08,24,07,23,15.10
2014,08,24,07,24,15.20
2014,08,24,07,25,15.20
2014,08,24,07,26,15.20
2014,08,24,07,27,15.20
2014,08,24,07,28,15.20
2014,08,24,07,29,15.20
2014,08,24,07,30,15.20
2014,08,24,07,31,15.30
2014,08,24,07,32,15.30
2014,08,24,07,33,15.30
2014,08,24,07,34,15.30
2014,08,24,07,35,15.40
2014,08,24,07,36,15.40
2014,08,24,07,37,15.40
2014,08,24,07,38,15.50
2014,08,24,07,39,15.50
2014,08,24,07,40,15.60
2014,08,24,07,41,15.60
2014,08,24,07,42,15.60
2014,08,24,07,43,15.70
2014,08,24,07,44,15.70
2014,08,24,07,45,15.80
2014,08,24,07,46,15.80
2014,08,24,07,47,15.80
2014,08,24,07,48,15.90
2014,08,24,07,49,16.00
2014,08,24,07,50,16.00
2014,08,24,07,51,16.10
2014,08,24,07,52,16.10
2014,08,24,07,53,16.20
2014,08,24,07,54,16.20
2014,08,24,07,55,16.30
2014,08,24,07,56,16.30
2014,08,24,07,57,16.30
2014,08,24,07,58,16.30
2014,08,24,07,59,16.30
2014,08,24,08,00,16.30
2014,08,24,08,01,16.30
2014,08,24,08,02,16.30
2014,08,24,08,03,16.30
2014,08,24,08,04,16.30
2014,08,24,08,05,16.40
2014,08,24,08,06,16.40
2014,08,24,08,07,16.40
2014,08,24,08,08,16.40
2014,08,24,08,09,16.50
2014,08,24,08,10,16.50
2014,08,24,08,11,16.50
2014,08,24,08,12,16.60
2014,08,24,08,13,16.60
2014,08,24,08,14,16.60
2014,08,24,08,15,16.60
2014,08,24,08,16,16.70
2014,08,24,08,17,16.70
2014,08,24,08,18,16.70
2014,08,24,08,19,16.80
2014,08,24,08,20,16.80
2014,08,24,08,21,16.80
2014,08,24,08,22,16.80
2014,08,24,08,23,16.90
2014,08,24,08,24,16.90
2014,08,24,08,25,16.90
2014,08,24,08,26,17.00
2014,08,24,08,27,16.90
2014,08,24,08,28,17.00
2014,08,24,08,29,17.00
2014,08,24,08,30,17.00
2014,08,24,08,31,17.00
2014,08,24,08,32,17.00
2014,08,24,08,33,17.00
2014,08,24,08,34,17.00
2014,08,24,08,35,17.00
2014,08,24,08,36,17.00
2014,08,24,08,37,17.00
2014,08,24,08,38,17.10
2014,08,24,08,39,17.10
2014,08,24,08,40,17.20
2014,08,24,08,41,17.20
2014,08,24,08,42,17.30
2014,08,24,08,43,17.40
2014,08,24,08,44,17.40
2014,08,24,08,45,17.50
2014,08,24,08,46,17.60
2014,08,24,08,47,17.70
2014,08,24,08,48,17.70
2014,08,24,08,49,17.70
2014,08,24,08,50,17.80
2014,08,24,08,51,17.80
2014,08,24,08,52,17.90
2014,08,24,08,53,17.90
2014,08,24,08,54,18.00
2014,08,24,08,55,18.00
2014,08,24,08,56,18.10
2014,08,24,08,57,18.20
2014,08,24,08,58,18.20
2014,08,24,08,59,18.20
2014,08,24,09,00,18.20
2014,08,24,09,01,18.20
2014,08,24,09,02,18.20
2014,08,24,09,03,18.20
2014,08,24,09,04,18.30
2014,08,24,09,05,18.30
2014,08,24,09,06,18.30
2014,08,24,09,07,18.30
2014,08,24,09,08,18.40
2014,08,24,09,09,18.40
2014,08,24,09,10,18.50
2014,08,24,09,11,18.50
2014,08,24,09,12,18.60
2014,08,24,09,13,18.60
2014,08,24,09,14,18.60
2014,08,24,09,15,18.70
2014,08,24,09,16,18.60
2014,08,24,09,17,18.60
2014,08,24,09,18,18.60
2014,08,24,09,19,18.60
2014,08,24,09,20,18.70
2014,08,24,09,21,18.80
2014,08,24,09,22,18.80
2014,08,24,09,23,18.80
2014,08,24,09,24,18.80
2014,08,24,09,25,18.80
2014,08,24,09,26,18.90
2014,08,24,09,27,18.90
2014,08,24,09,28,18.90
2014,08,24,09,29,19.00
2014,08,24,09,30,19.00
2014,08,24,09,31,19.00
2014,08,24,09,32,19.00
2014,08,24,09,33,19.10
2014,08,24,09,34,19.10
2014,08,24,09,35,19.10
2014,08,24,09,36,19.10
2014,08,24,09,37,19.10
2014,08,24,09,38,19.10
2014,08,24,09,39,19.20
2014,08,24,09,40,19.20
2014,08,24,09,41,19.20
2014,08,24,09,42,19.30
2014,08,24,09,43,19.30
2014,08,24,09,44,19.40
2014,08,24,09,45,19.40
2014,08,24,09,46,19.40
2014,08,24,09,47,19.30
2014,08,24,09,48,19.30
2014,08,24,09,49,19.30
2014,08,24,09,50,19.30
2014,08,24,09,51,19.30
2014,08,24,09,52,19.30
2014,08,24,09,53,19.30
2014,08,24,09,54,19.30
2014,08,24,09,55,19.30
2014,08,24,09,56,19.30
2014,08,24,09,57,19.30
2014,08,24,09,58,19.40
2014,08,24,09,59,19.40
2014,08,24,10,00,19.40
2014,08,24,10,01,19.50
2014,08,24,10,02,19.50
2014,08,24,10,03,19.50
2014,08,24,10,04,19.60
2014,08,24,10,05,19.60
2014,08,24,10,06,19.70
2014,08,24,10,07,19.70
2014,08,24,10,08,19.70
2014,08,24,10,09,19.70
2014,08,24,10,10,19.70
2014,08,24,10,11,19.80
2014,08,24,10,12,19.90
2014,08,24,10,13,19.90
2014,08,24,10,14,20.00
2014,08,24,10,15,20.10
2014,08,24,10,16,20.10
2014,08,24,10,17,20.20
2014,08,24,10,18,20.20
2014,08,24,10,19,20.20
2014,08,24,10,20,20.30
2014,08,24,10,21,20.30
2014,08,24,10,22,20.30
2014,08,24,10,23,20.30
2014,08,24,10,24,20.30
2014,08,24,10,25,20.40
2014,08,24,10,26,20.40
2014,08,24,10,27,20.50
2014,08,24,10,28,20.50
2014,08,24,10,29,20.60
2014,08,24,10,30,20.60
2014,08,24,10,31,20.60
2014,08,24,10,32,20.60
2014,08,24,10,33,20.60
2014,08,24,10,34,20.60
2014,08,24,10,35,20.70
2014,08,24,10,36,20.80
2014,08,24,10,37,20.90
2014,08,24,10,38,20.90
2014,08,24,10,39,20.90
2014,08,24,10,40,21.00
2014,08,24,10,41,21.00
2014,08,24,10,42,20.90
2014,08,24,10,43,20.90
2014,08,24,10,44,21.00
2014,08,24,10,45,21.00
2014,08,24,10,46,21.00
2014,08,24,10,47,21.00
2014,08,24,10,48,21.10
2014,08,24,10,49,21.10
2014,08,24,10,50,21.20
2014,08,24,10,51,21.30
2014,08,24,10,52,21.40
2014,08,24,10,53,21.40
2014,08,24,10,54,21.30
2014,08,24,10,55,21.30
2014,08,24,10,56,21.20
2014,08,24,10,57,21.20
2014,08,24,10,58,21.20
2014,08,24,10,59,21.20
2014,08,24,11,00,21.30
2014,08,24,11,01,21.30
2014,08,24,11,02,21.30
2014,08,24,11,03,21.30
2014,08,24,11,04,21.30
2014,08,24,11,05,21.30
2014,08,24,11,06,21.20
2014,08,24,11,07,21.20
2014,08,24,11,08,21.30
2014,08,24,11,09,21.30
2014,08,24,11,10,21.30
2014,08,24,11,11,21.40
2014,08,24,11,12,21.40
2014,08,24,11,13,21.50
2014,08,24,11,14,21.70
2014,08,24,11,15,21.80
2014,08,24,11,16,21.90
2014,08,24,11,17,22.00
2014,08,24,11,18,22.00
2014,08,24,11,19,22.00
2014,08,24,11,20,21.90
2014,08,24,11,21,21.80
2014,08,24,11,22,21.80
2014,08,24,11,23,21.70
2014,08,24,11,24,21.70
2014,08,24,11,25,21.80
2014,08,24,11,26,21.80
2014,08,24,11,27,21.90
2014,08,24,11,28,21.90
2014,08,24,11,29,21.90
2014,08,24,11,30,22.00
2014,08,24,11,31,22.00
2014,08,24,11,32,22.00
2014,08,24,11,33,21.90
2014,08,24,11,34,21.80
2014,08,24,11,35,21.80
2014,08,24,11,36,21.80
2014,08,24,11,37,21.90
2014,08,24,11,38,22.00
2014,08,24,11,39,22.10
2014,08,24,11,40,22.20
2014,08,24,11,41,22.20
2014,08,24,11,42,22.20
2014,08,24,11,43,22.20
2014,08,24,11,44,22.20
2014,08,24,11,45,22.30
2014,08,24,11,46,22.40
2014,08,24,11,47,22.50
2014,08,24,11,48,22.50
2014,08,24,11,49,22.60
2014,08,24,11,50,22.60
2014,08,24,11,51,22.60
2014,08,24,11,52,22.70
2014,08,24,11,53,22.70
2014,08,24,11,54,22.70
2014,08,24,11,55,22.80
2014,08,24,11,56,22.80
2014,08,24,11,57,22.80
2014,08,24,11,58,22.80
2014,08,24,11,59,22.80
2014,08,24,12,00,22.80
2014,08,24,12,01,22.80
2014,08,24,12,02,22.90
2014,08,24,12,03,22.90
2014,08,24,12,04,22.90
2014,08,24,12,05,23.00
2014,08,24,12,06,22.90
2014,08,24,12,07,23.00
2014,08,24,12,08,23.10
2014,08,24,12,09,23.20
2014,08,24,12,10,23.20
2014,08,24,12,11,23.20
2014,08,24,12,12,23.20
2014,08,24,12,13,23.30
2014,08,24,12,14,23.30
2014,08,24,12,15,23.40
2014,08,24,12,16,23.40
2014,08,24,12,17,23.50
2014,08,24,12,18,23.40
2014,08,24,12,19,23.40
2014,08,24,12,20,23.40
2014,08,24,12,21,23.40
2014,08,24,12,22,23.40
2014,08,24,12,23,23.50
2014,08,24,12,24,23.40
2014,08,24,12,25,23.30
2014,08,24,12,26,23.30
2014,08,24,12,27,23.30
2014,08,24,12,28,23.40
2014,08,24,12,29,23.50
2014,08,24,12,30,23.60
2014,08,24,12,31,23.60
2014,08,24,12,32,23.70
2014,08,24,12,33,23.80
2014,08,24,12,34,23.90
2014,08,24,12,35,24.10
2014,08,24,12,36,24.10
2014,08,24,12,37,24.20
2014,08,24,12,38,24.20
2014,08,24,12,39,24.20
2014,08,24,12,40,24.20
2014,08,24,12,41,24.10
2014,08,24,12,42,24.10
2014,08,24,12,43,24.00
2014,08,24,12,44,24.00
2014,08,24,12,45,24.00
2014,08,24,12,46,24.10
2014,08,24,12,47,24.10
2014,08,24,12,48,24.10
2014,08,24,12,49,24.20
2014,08,24,12,50,24.20
2014,08,24,12,51,24.20
2014,08,24,12,52,24.20
2014,08,24,12,53,24.30
2014,08,24,12,54,24.30
2014,08,24,12,55,24.30
2014,08,24,12,56,24.30
2014,08,24,12,57,24.30
2014,08,24,12,58,24.20
2014,08,24,12,59,24.20
2014,08,24,13,00,24.20
2014,08,24,13,01,24.20
2014,08,24,13,02,24.20
2014,08,24,13,03,24.20
2014,08,24,13,04,24.20
2014,08,24,13,05,24.10
2014,08,24,13,06,24.00
2014,08,24,13,07,23.90
2014,08,24,13,08,24.00
2014,08,24,13,09,24.00
2014,08,24,13,10,24.10
2014,08,24,13,11,24.10
2014,08,24,13,12,24.10
2014,08,24,13,13,24.20
2014,08,24,13,14,24.20
2014,08,24,13,15,24.20
2014,08,24,13,16,24.20
2014,08,24,13,17,24.30
2014,08,24,13,18,24.30
2014,08,24,13,19,24.40
2014,08,24,13,20,24.50
2014,08,24,13,21,24.50
2014,08,24,13,22,24.40
2014,08,24,13,23,24.30
2014,08,24,13,24,24.30
2014,08,24,13,25,24.30
2014,08,24,13,26,24.20
2014,08,24,13,27,24.30
2014,08,24,13,28,24.30
2014,08,24,13,29,24.20
2014,08,24,13,30,24.20
2014,08,24,13,31,24.20
2014,08,24,13,32,24.20
2014,08,24,13,33,24.20
2014,08,24,13,34,24.20
2014,08,24,13,35,24.20
2014,08,24,13,36,24.20
2014,08,24,13,37,24.20
2014,08,24,13,38,24.20
2014,08,24,13,39,24.30
2014,08,24,13,40,24.30
2014,08,24,13,41,24.30
2014,08,24,13,42,24.30
2014,08,24,13,43,24.40
2014,08,24,13,44,24.40
2014,08,24,13,45,24.40
2014,08,24,13,46,24.40
2014,08,24,13,47,24.50
2014,08,24,13,48,24.50
2014,08,24,13,49,24.60
2014,08,24,13,50,24.70
2014,08,24,13,51,24.70
2014,08,24,13,52,24.80
2014,08,24,13,53,24.80
2014,08,24,13,54,24.80
2014,08,24,13,55,24.80
2014,08,24,13,56,24.70
2014,08,24,13,57,24.60
2014,08,24,13,58,24.60
2014,08,24,13,59,24.60
2014,08,24,14,00,24.60
2014,08,24,14,01,24.60
2014,08,24,14,02,24.60
2014,08,24,14,03,24.50
2014,08,24,14,04,24.50
2014,08,24,14,05,24.60
2014,08,24,14,06,24.60
2014,08,24,14,07,24.60
2014,08,24,14,08,24.70
2014,08,24,14,09,24.80
2014,08,24,14,10,24.80
2014,08,24,14,11,24.80
2014,08,24,14,12,24.70
2014,08,24,14,13,24.60
2014,08,24,14,14,24.60
2014,08,24,14,15,24.70
2014,08,24,14,16,24.70
2014,08,24,14,17,24.70
2014,08,24,14,18,24.70
2014,08,24,14,19,24.60
2014,08,24,14,20,24.50
2014,08,24,14,21,24.40
2014,08,24,14,22,24.20
2014,08,24,14,23,24.00
2014,08,24,14,24,23.70
2014,08,24,14,25,23.50
2014,08,24,14,26,23.40
2014,08,24,14,27,23.40
2014,08,24,14,28,23.40
2014,08,24,14,29,23.40
2014,08,24,14,30,23.50
2014,08,24,14,31,23.50
2014,08,24,14,32,23.60
2014,08,24,14,33,23.70
2014,08,24,14,34,23.80
2014,08,24,14,35,23.80
2014,08,24,14,36,23.90
2014,08,24,14,37,24.10
2014,08,24,14,38,24.20
2014,08,24,14,39,24.20
2014,08,24,14,40,24.20
2014,08,24,14,41,24.30
2014,08,24,14,42,24.30
2014,08,24,14,43,24.40
2014,08,24,14,44,24.40
2014,08,24,14,45,24.40
2014,08,24,14,46,24.40
2014,08,24,14,47,24.50
2014,08,24,14,48,24.60
2014,08,24,14,49,24.60
2014,08,24,14,50,24.60
2014,08,24,14,51,24.60
2014,08,24,14,52,24.60
2014,08,24,14,53,24.60
2014,08,24,14,54,24.60
2014,08,24,14,55,24.60
2014,08,24,14,56,24.70
2014,08,24,14,57,24.70
2014,08,24,14,58,24.70
2014,08,24,14,59,24.70
2014,08,24,15,00,24.70
2014,08,24,15,01,24.60
2014,08,24,15,02,24.60
2014,08,24,15,03,24.60
2014,08,24,15,04,24.60
2014,08,24,15,05,24.50
2014,08,24,15,06,24.60
2014,08,24,15,07,24.60
2014,08,24,15,08,24.70
2014,08,24,15,09,24.70
2014,08,24,15,10,24.70
2014,08,24,15,11,24.70
2014,08,24,15,12,24.70
2014,08,24,15,13,24.70
2014,08,24,15,14,24.70
2014,08,24,15,15,24.80
2014,08,24,15,16,24.80
2014,08,24,15,17,24.80
2014,08,24,15,18,24.80
2014,08,24,15,19,24.80
2014,08,24,15,20,24.80
2014,08,24,15,21,24.70
2014,08,24,15,22,24.60
2014,08,24,15,23,24.50
2014,08,24,15,24,24.40
2014,08,24,15,25,24.30
2014,08,24,15,26,24.20
2014,08,24,15,27,24.10
2014,08,24,15,28,24.00
2014,08,24,15,29,23.90
2014,08,24,15,30,23.80
2014,08,24,15,31,23.80
2014,08,24,15,32,23.80
2014,08,24,15,33,23.80
2014,08,24,15,34,23.80
2014,08,24,15,35,23.90
2014,08,24,15,36,23.90
2014,08,24,15,37,23.90
2014,08,24,15,38,23.90
2014,08,24,15,39,24.00
2014,08,24,15,40,24.00
2014,08,24,15,41,24.10
2014,08,24,15,42,24.10
2014,08,24,15,43,24.20
2014,08,24,15,44,24.20
2014,08,24,15,45,24.20
2014,08,24,15,46,24.30
2014,08,24,15,47,24.40
2014,08,24,15,48,24.50
2014,08,24,15,49,24.60
2014,08,24,15,50,24.80
2014,08,24,15,51,24.90
2014,08,24,15,52,25.00
2014,08,24,15,53,25.10
2014,08,24,15,54,25.20
2014,08,24,15,55,25.30
2014,08,24,15,56,25.30
2014,08,24,15,57,25.30
2014,08,24,15,58,25.30
2014,08,24,15,59,25.30
2014,08,24,16,00,25.40
2014,08,24,16,01,25.40
2014,08,24,16,02,25.50
2014,08,24,16,03,25.60
2014,08,24,16,04,25.60
2014,08,24,16,05,25.70
2014,08,24,16,06,25.70
2014,08,24,16,07,25.80
2014,08,24,16,08,25.90
2014,08,24,16,09,26.00
2014,08,24,16,10,26.10
2014,08,24,16,11,26.30
2014,08,24,16,12,26.30
2014,08,24,16,13,26.30
2014,08,24,16,14,26.30
2014,08,24,16,15,26.30
2014,08,24,16,16,26.30
2014,08,24,16,17,26.30
2014,08,24,16,18,26.30
2014,08,24,16,19,26.40
2014,08,24,16,20,26.40
2014,08,24,16,21,26.30
2014,08,24,16,22,26.20
2014,08,24,16,23,26.20
2014,08,24,16,24,26.10
2014,08,24,16,25,26.10
2014,08,24,16,26,26.10
2014,08,24,16,27,26.10
2014,08,24,16,28,26.20
2014,08,24,16,29,26.20
2014,08,24,16,30,26.20
2014,08,24,16,31,26.30
2014,08,24,16,32,26.30
2014,08,24,16,33,26.30
2014,08,24,16,34,26.30
2014,08,24,16,35,26.30
2014,08,24,16,36,26.30
2014,08,24,16,37,26.30
2014,08,24,16,38,26.30
2014,08,24,16,39,26.30
2014,08,24,16,40,26.30
2014,08,24,16,41,26.30
2014,08,24,16,42,26.30
2014,08,24,16,43,26.30
2014,08,24,16,44,26.30
2014,08,24,16,45,26.30
2014,08,24,16,46,26.20
2014,08,24,16,47,26.20
2014,08,24,16,48,26.30
2014,08,24,16,49,26.30
2014,08,24,16,50,26.40
2014,08,24,16,51,26.40
2014,08,24,16,52,26.50
2014,08,24,16,53,26.60
2014,08,24,16,54,26.70
2014,08,24,16,55,26.80
2014,08,24,16,56,26.80
2014,08,24,16,57,26.90
2014,08,24,16,58,27.00
2014,08,24,16,59,27.10
2014,08,24,17,00,27.10
2014,08,24,17,01,27.20
2014,08,24,17,02,27.20
2014,08,24,17,03,27.30
2014,08,24,17,04,27.40
2014,08,24,17,05,27.50
2014,08,24,17,06,27.50
2014,08,24,17,07,27.50
2014,08,24,17,08,27.60
2014,08,24,17,09,27.60
2014,08,24,17,10,27.70
2014,08,24,17,11,27.70
2014,08,24,17,12,27.70
2014,08,24,17,13,27.80
2014,08,24,17,14,27.80
2014,08,24,17,15,27.90
2014,08,24,17,16,28.00
2014,08,24,17,17,28.00
2014,08,24,17,18,28.10
2014,08,24,17,19,28.10